Wind_Speed
10 11 10 11 12 7 7 7 7 6 7 5 10 5 0 3 6 6 2 3 3 2 6 9 5 6 5 6 9 10 7 6 4 9 11 14 20 17 17 13 10 8 4 5
13 14 15 13 13 12 11 6 8 9 9 13 9 1 4 3 4 10 10 2 2 4 7 7 8 8 5 6 7 7 6 6 3 7 9 15 19 19 16 15 13 9 7 10
15 18 17 15 15 15 15 10 8 10 12 14 14 9 4 7 7 7 12 6 5 4 5 9 11 8 8 8 8 8 7 6 3 7 6 9 18 18 17 16 14 9 8 9
15 19 17 17 16 18 14 10 8 11 16 17 13 6 7 4 4 5 6 8 8 6 4 11 13 11 11 9 9 8 7 6 5 8 9 8 11 12 13 14 12 10 13 10
19 18 16 12 13 16 15 13 10 10 15 15 11 4 7 8 2 5 9 5 7 6 2 9 9 10 13 10 10 9 9 7 8 7 11 10 10 10 10 14 14 14 13 12
20 21 18 18 18 20 18 16 15 15 17 15 7 10 3 1 1 8 5 3 6 7 4 7 12 11 10 12 13 12 10 10 9 9 11 13 13 10 8 14 12 13 13 16
21 22 22 20 18 19 18 19 18 16 14 10 17 17 6 5 3 7 11 11 8 5 8 6 10 13 13 13 12 13 12 11 11 12 11 11 13 10 9 10 12 11 11 13
19 16 16 18 16 17 17 17 19 18 14 13 21 18 11 8 2 1 5 13 11 6 11 7 13 13 13 15 14 12 14 14 14 13 13 11 10 11 11 11 12 12 14 13
24 19 22 21 18 20 20 15 13 16 13 14 16 13 9 5 4 2 6 9 14 18 6 8 10 17 17 16 19 17 16 16 16 16 15 14 13 13 12 13 14 15 15 15
23 21 23 25 30 27 21 18 16 14 15 12 10 16 19 10 5 4 5 8 13 10 8 10 13 17 19 18 19 14 15 17 16 17 15 14 12 12 13 13 13 16 17 16
27 26 17 25 28 28 20 22 21 20 19 16 13 11 13 15 9 1 3 6 11 11 11 6 9 15 18 20 21 19 18 16 17 19 15 15 14 13 12 12 12 15 17 17
35 32 24 21 20 27 27 27 31 26 24 22 18 5 11 13 10 5 5 7 7 10 5 7 11 13 15 18 24 21 23 19 17 20 14 16 15 14 12 11 9 10 13 15
41 43 38 30 28 30 33 36 32 33 31 29 26 17 13 19 18 14 4 7 11 4 7 5 9 12 13 15 18 18 19 21 20 22 19 17 18 17 14 13 13 13 15 15
48 49 49 47 43 38 32 35 42 39 36 35 32 28 19 21 23 17 12 7 11 8 9 7 8 11 11 9 13 16 18 17 16 19 20 19 19 20 19 17 16 15 15 15
43 50 54 53 53 51 47 38 39 44 42 42 35 35 31 24 26 18 16 16 12 6 6 5 7 11 10 9 14 21 14 17 21 17 17 17 18 20 21 18 18 17 17 16
41 43 49 50 57 61 55 52 48 45 45 45 47 40 35 32 30 27 25 24 16 11 9 8 12 12 9 9 11 12 16 20 20 17 18 16 14 18 21 20 20 19 19 19
38 40 43 46 49 51 51 45 50 51 46 46 45 47 42 39 34 30 30 31 22 17 9 13 7 6 10 10 10 11 13 15 17 17 18 15 13 15 21 23 24 24 21 19
43 41 41 43 48 50 46 47 48 49 47 45 49 47 48 46 37 28 31 35 26 24 8 7 3 8 10 13 12 10 12 13 13 16 16 16 16 15 16 27 30 27 21 22
41 43 43 41 43 44 46 46 46 48 49 46 45 49 49 49 43 33 33 32 31 28 19 17 17 16 16 14 15 11 10 11 13 16 17 17 15 12 19 19 22 22 25 18
37 40 40 40 40 43 43 43 45 47 47 46 47 50 50 51 45 43 34 28 26 29 23 16 15 11 10 13 18 13 11 10 10 11 13 13 13 10 10 15 9 10 12 13
35 36 40 43 44 44 41 43 45 45 45 44 44 49 52 49 46 40 36 33 31 24 20 16 15 14 14 15 20 18 13 13 13 12 13 12 12 11 10 10 11 12 13 14
40 39 35 40 44 46 44 42 39 43 43 41 43 46 47 47 47 40 39 38 35 31 33 17 18 11 9 17 22 22 17 18 15 15 16 15 13 12 13 14 15 16 15 15
39 42 44 44 41 42 44 43 39 39 38 38 40 44 48 47 45 40 40 35 41 40 36 23 20 16 17 17 22 26 24 20 22 21 20 19 18 18 16 16 16 17 18 18
38 42 42 40 38 38 39 40 33 33 33 34 34 41 48 49 50 44 45 35 41 34 35 31 26 22 20 15 23 26 24 23 25 23 21 22 22 21 20 20 20 21 22 23
40 40 34 35 31 34 34 34 33 30 28 35 34 41 47 49 50 47 44 43 37 39 39 38 30 32 22 19 25 24 24 23 22 21 21 23 24 24 23 23 23 23 23 24
37 34 29 21 22 28 31 24 24 34 33 32 40 39 44 47 51 47 39 44 43 44 37 46 37 39 29 24 24 22 22 23 25 23 22 22 24 25 25 25 23 21 19 18
Wind_Direction
271 286 289 295 302 307 302 296 307 334 337 3 320 294 182 334 305 328 323 99 31 235 263 230 251 256 245 208 199 192 202 214 248 249 233 218 208 207 184 194 201 183 165 161
266 268 270 278 291 301 292 301 314 325 332 317 318 117 232 304 18 350 334 198 142 166 212 217 222 219 232 212 205 201 211 216 246 255 219 197 199 201 204 209 214 197 197 212
258 267 272 277 286 286 290 301 308 299 305 311 324 8 16 20 358 326 308 232 218 168 175 230 225 221 204 210 215 207 202 212 185 166 144 194 196 197 205 208 211 212 188 161
258 257 258 260 268 270 272 282 294 297 299 315 310 35 56 40 38 345 292 247 215 243 261 222 227 212 199 186 212 207 186 204 181 175 135 141 182 200 204 209 199 199 187 172
257 263 259 269 267 264 256 274 287 289 296 296 293 4 114 124 149 34 339 233 234 258 247 182 215 211 196 200 196 209 182 189 195 190 161 156 163 177 170 184 165 178 191 199
256 254 255 250 257 267 265 262 270 277 285 282 242 233 299 53 243 83 40 254 272 271 237 204 236 229 202 196 186 205 190 179 195 194 182 168 167 161 160 186 192 186 199 189
258 253 255 255 263 260 262 266 270 279 293 267 226 236 295 12 142 121 43 27 1 343 307 261 253 244 230 210 201 195 196 189 191 190 195 186 167 171 180 171 193 195 193 190
251 246 250 238 238 246 256 264 277 290 300 249 229 242 266 252 152 71 357 28 32 309 289 280 265 264 250 223 195 206 202 200 198 196 198 201 200 181 183 187 186 194 193 196
242 224 216 222 225 243 241 254 256 275 297 274 249 225 230 183 168 220 71 19 22 14 336 280 253 266 259 235 215 203 203 201 204 208 203 209 208 197 196 200 210 204 212 210
263 260 226 226 228 229 249 247 255 274 292 283 282 230 235 237 115 28 82 39 2 12 354 261 246 251 256 248 239 211 209 203 204 214 210 213 211 210 204 208 206 211 208 215
281 275 205 238 234 226 235 248 242 263 269 278 291 275 240 254 249 308 87 1 360 347 318 283 251 241 248 242 237 228 220 208 212 218 215 214 210 212 210 207 206 219 218 219
282 281 276 243 240 238 234 239 250 248 258 264 268 227 232 242 255 227 316 328 350 332 321 308 278 266 243 237 229 226 225 217 215 221 226 234 222 218 218 216 217 222 220 223
272 279 281 274 261 244 243 243 247 253 255 262 259 258 252 245 250 242 225 302 309 326 324 272 263 273 258 248 230 222 221 225 220 229 232 231 233 226 224 219 219 221 226 222
259 260 267 273 273 268 260 254 248 251 260 257 261 260 250 244 249 256 250 267 298 339 268 265 264 278 278 264 233 229 217 225 243 231 237 236 239 235 219 224 222 224 228 230
263 262 260 261 265 268 268 257 252 250 254 257 258 261 260 255 237 239 249 243 268 326 331 217 278 274 287 278 257 261 231 236 219 228 234 248 242 235 234 222 232 230 226 229
261 259 262 263 261 263 264 266 263 256 252 255 256 259 262 262 251 242 244 255 249 282 290 231 282 272 270 290 267 254 236 204 232 225 241 246 245 242 241 243 236 238 239 234
271 269 263 259 260 261 263 262 263 263 259 252 250 256 259 263 267 250 240 251 251 252 276 311 281 265 261 269 276 246 245 208 213 231 236 239 242 243 245 240 234 229 228 236
277 275 269 264 261 260 260 257 257 257 257 256 249 246 252 257 257 253 253 243 245 257 248 264 239 300 275 263 264 260 231 253 208 232 224 230 235 231 240 247 245 234 251 238
278 277 274 270 266 262 259 261 259 257 252 250 253 249 244 252 254 258 243 248 256 258 249 240 264 286 280 264 257 255 251 236 222 228 227 227 226 232 238 233 240 242 248 231
278 275 274 273 269 265 260 258 257 258 255 252 246 249 250 248 251 252 235 237 240 253 238 257 269 299 248 250 251 248 243 248 236 221 217 214 213 211 202 208 233 223 246 254
282 276 274 272 270 268 265 258 257 254 251 251 246 241 243 245 245 242 234 235 230 223 235 244 250 289 240 242 241 235 231 239 238 229 220 212 208 210 210 213 214 223 230 236
282 275 270 268 267 266 265 260 257 255 252 248 245 242 240 238 240 234 232 230 229 231 236 252 239 261 249 239 235 226 224 232 232 231 226 220 222 227 227 228 230 235 242 247
285 282 280 279 273 261 257 256 253 251 253 249 242 240 237 232 232 232 229 234 231 234 238 224 215 218 251 241 231 227 223 228 228 224 226 231 233 236 237 238 245 252 256 259
288 287 290 284 275 255 247 245 242 246 246 236 233 233 235 229 225 230 220 225 226 226 233 215 225 221 225 241 222 233 224 228 227 231 235 240 242 239 240 242 246 250 254 259
293 299 293 297 283 256 242 234 227 240 241 229 224 223 227 228 222 221 224 221 221 233 224 232 208 209 224 238 223 222 222 231 229 234 234 237 240 244 245 245 247 250 256 264
302 305 304 302 278 250 226 210 212 231 232 236 222 220 226 227 219 215 219 223 223 227 238 234 240 225 203 211 213 213 225 227 230 229 230 233 236 239 241 244 248 254 259 264
Height
5895 5894 5894 5893 5892 5890 5889 5888 5886 5884 5883 5882 5883 5883 5882 5881 5879 5878 5878 5878 5875 5874 5875 5874 5874 5875 5876 5875 5875 5875 5877 5876 5877 5879 5879 5881 5883 5887 5890 5892 5894 5896 5897 5897
5893 5893 5892 5891 5890 5889 5888 5887 5885 5883 5880 5880 5880 5881 5880 5880 5880 5878 5876 5874 5874 5871 5872 5870 5872 5873 5874 5874 5875 5875 5876 5875 5875 5876 5876 5879 5881 5886 5890 5892 5893 5895 5897 5897
5890 5889 5889 5889 5888 5887 5886 5885 5883 5881 5880 5879 5877 5878 5878 5878 5877 5875 5874 5872 5871 5870 5870 5871 5870 5872 5873 5874 5874 5875 5875 5875 5875 5875 5876 5879 5882 5885 5888 5890 5892 5894 5896 5898
5888 5886 5887 5887 5886 5886 5886 5882 5881 5880 5878 5878 5877 5876 5875 5876 5874 5872 5870 5869 5868 5867 5869 5870 5870 5871 5873 5872 5873 5874 5873 5874 5875 5875 5876 5880 5883 5886 5888 5888 5891 5894 5896 5897
5884 5884 5884 5884 5884 5883 5882 5880 5879 5878 5876 5876 5877 5875 5875 5873 5872 5870 5868 5866 5868 5865 5867 5867 5868 5870 5871 5870 5872 5873 5872 5874 5875 5876 5876 5880 5883 5885 5887 5888 5890 5892 5894 5895
5879 5879 5880 5879 5880 5879 5878 5877 5876 5874 5873 5873 5874 5874 5874 5873 5871 5868 5867 5866 5866 5865 5864 5864 5866 5867 5868 5869 5870 5871 5871 5872 5875 5876 5877 5879 5882 5885 5887 5888 5889 5890 5891 5893
5874 5874 5875 5875 5877 5875 5874 5873 5871 5871 5870 5870 5869 5870 5873 5873 5870 5868 5870 5869 5868 5866 5866 5866 5863 5863 5865 5867 5869 5868 5869 5871 5873 5875 5876 5878 5880 5883 5885 5887 5888 5890 5891 5892
5868 5871 5870 5870 5874 5872 5870 5870 5868 5866 5866 5866 5865 5868 5872 5871 5870 5869 5870 5869 5866 5865 5864 5864 5864 5863 5862 5865 5866 5866 5868 5869 5872 5874 5874 5877 5879 5881 5883 5885 5886 5888 5890 5891
5860 5864 5864 5865 5866 5865 5867 5867 5866 5864 5862 5862 5863 5866 5868 5867 5867 5867 5869 5867 5865 5862 5861 5863 5866 5863 5862 5863 5864 5864 5865 5867 5869 5872 5873 5875 5878 5879 5881 5883 5885 5887 5888 5890
5859 5858 5859 5859 5858 5860 5860 5861 5862 5861 5859 5859 5860 5863 5864 5866 5864 5865 5866 5865 5864 5862 5862 5861 5862 5863 5861 5861 5862 5862 5864 5865 5867 5870 5872 5873 5876 5878 5880 5882 5884 5885 5887 5889
5852 5854 5860 5856 5855 5857 5857 5856 5856 5857 5855 5855 5856 5859 5862 5862 5862 5862 5863 5863 5863 5861 5860 5859 5857 5859 5860 5858 5859 5861 5862 5862 5865 5868 5868 5871 5873 5876 5878 5880 5882 5883 5885 5887
5844 5844 5847 5853 5854 5853 5853 5849 5850 5848 5851 5851 5851 5856 5855 5856 5857 5858 5859 5860 5861 5860 5860 5857 5856 5855 5856 5856 5856 5857 5858 5859 5862 5866 5866 5868 5871 5873 5875 5878 5879 5880 5883 5884
5838 5836 5837 5841 5846 5846 5845 5844 5844 5844 5844 5846 5846 5851 5851 5850 5852 5853 5853 5856 5858 5859 5857 5855 5853 5851 5851 5851 5852 5853 5853 5855 5858 5863 5865 5866 5869 5870 5873 5876 5878 5879 5881 5882
5830 5829 5829 5829 5832 5835 5838 5839 5839 5838 5838 5839 5841 5843 5845 5846 5847 5849 5850 5851 5854 5855 5854 5852 5852 5850 5848 5848 5847 5846 5848 5851 5854 5858 5862 5863 5866 5868 5870 5872 5875 5876 5878 5879
5818 5816 5816 5818 5819 5820 5824 5829 5831 5830 5832 5831 5835 5835 5839 5840 5843 5845 5846 5845 5849 5853 5852 5851 5852 5849 5847 5846 5846 5842 5844 5849 5850 5853 5857 5859 5860 5863 5867 5868 5870 5873 5874 5874
5806 5806 5804 5805 5806 5806 5809 5814 5819 5822 5822 5822 5824 5828 5830 5832 5836 5839 5842 5842 5844 5847 5850 5850 5850 5849 5846 5845 5845 5845 5847 5843 5848 5850 5852 5852 5856 5858 5861 5863 5865 5869 5869 5869
5795 5794 5793 5796 5794 5794 5797 5804 5804 5804 5809 5812 5815 5817 5821 5824 5828 5832 5836 5838 5839 5842 5844 5844 5843 5844 5844 5845 5843 5844 5844 5842 5844 5846 5849 5850 5852 5853 5855 5858 5859 5860 5864 5866
5782 5781 5781 5783 5781 5783 5790 5789 5789 5791 5795 5799 5803 5808 5811 5814 5819 5825 5827 5832 5835 5836 5838 5840 5841 5843 5843 5842 5842 5842 5842 5833 5838 5842 5845 5847 5849 5849 5852 5854 5852 5856 5858 5861
5769 5767 5767 5768 5768 5772 5775 5775 5775 5777 5784 5789 5792 5794 5800 5803 5809 5817 5822 5826 5829 5832 5833 5835 5838 5838 5838 5839 5840 5841 5841 5840 5840 5841 5843 5845 5845 5845 5847 5848 5848 5852 5855 5858
5758 5755 5755 5754 5754 5756 5760 5762 5762 5765 5771 5776 5781 5784 5788 5793 5799 5808 5814 5819 5824 5828 5828 5831 5831 5831 5833 5835 5837 5838 5839 5839 5839 5840 5841 5843 5844 5846 5847 5846 5845 5850 5853 5855
5748 5745 5743 5740 5739 5741 5745 5747 5746 5752 5762 5761 5767 5771 5776 5783 5791 5798 5804 5811 5814 5819 5823 5824 5825 5824 5825 5829 5834 5834 5835 5838 5838 5839 5841 5842 5844 5846 5847 5848 5848 5851 5853 5854
5733 5730 5730 5727 5725 5726 5731 5732 5737 5737 5742 5749 5754 5758 5764 5773 5777 5787 5794 5800 5806 5812 5815 5814 5817 5819 5821 5824 5829 5831 5831 5834 5837 5839 5840 5842 5844 5846 5847 5848 5849 5850 5851 5851
5720 5717 5714 5712 5713 5712 5714 5718 5723 5725 5729 5734 5741 5745 5751 5760 5767 5775 5782 5789 5797 5805 5805 5809 5809 5810 5816 5819 5823 5826 5827 5831 5834 5838 5839 5840 5841 5842 5844 5845 5846 5847 5848 5848
5707 5702 5699 5697 5698 5697 5698 5704 5711 5712 5716 5720 5726 5732 5737 5747 5756 5764 5773 5780 5787 5793 5797 5801 5804 5803 5808 5813 5816 5820 5824 5826 5829 5833 5834 5836 5837 5838 5839 5840 5841 5842 5842 5842
5694 5691 5688 5684 5681 5681 5687 5691 5695 5701 5705 5708 5713 5719 5724 5732 5744 5755 5763 5771 5780 5786 5790 5792 5795 5796 5798 5803 5808 5814 5819 5822 5825 5827 5828 5830 5831 5833 5833 5834 5835 5835 5836 5836
5685 5681 5677 5673 5669 5669 5677 5682 5687 5690 5695 5697 5703 5709 5714 5720 5732 5746 5755 5763 5772 5776 5781 5786 5788 5783 5784 5793 5800 5807 5812 5816 5819 5820 5822 5823 5825 5827 5828 5829 5829 5829 5831 5832